Location: ???????
(55.4362°N, 38.1183°E)
Time: 18:21:33
(UTC+00:00)

Cosmos 468 Rocket - Pass Details

Date: 17 June 2021
Orbit: 743 x 780 km, 74.0° (Epoch: 30 July)

Event Time Altitude Azimuth Distance (km) Brightness Sun altitude
Exits shadow 22:57:14 11° 198° (SSW) 2,181 5.7 -8.9°
Maximum altitude 23:02:08 75° 114° (ESE) 792 4.1 -8.7°
Drops below altitude 10° 23:07:22 10° 30° (NNE) 2,314 8.2 -8.4°
Sets 23:09:46 0° 29° (NNE) 3,250 9.6 -8.3°
